Year,Month,Day,Hour,Minute,Value (Times are PST for temperature in C)
2017,04,10,00,00,9.10
2017,04,10,00,01,9.10
2017,04,10,00,02,9.10
2017,04,10,00,03,9.00
2017,04,10,00,04,9.00
2017,04,10,00,05,9.00
2017,04,10,00,06,9.00
2017,04,10,00,07,9.00
2017,04,10,00,08,9.00
2017,04,10,00,09,9.00
2017,04,10,00,10,9.00
2017,04,10,00,11,9.00
2017,04,10,00,12,9.00
2017,04,10,00,13,9.00
2017,04,10,00,14,8.90
2017,04,10,00,15,8.90
2017,04,10,00,16,8.90
2017,04,10,00,17,8.90
2017,04,10,00,18,8.90
2017,04,10,00,19,8.80
2017,04,10,00,20,8.80
2017,04,10,00,21,8.80
2017,04,10,00,22,8.70
2017,04,10,00,23,8.70
2017,04,10,00,24,8.70
2017,04,10,00,25,8.70
2017,04,10,00,26,8.70
2017,04,10,00,27,8.70
2017,04,10,00,28,8.70
2017,04,10,00,29,8.70
2017,04,10,00,30,8.70
2017,04,10,00,31,8.70
2017,04,10,00,32,8.70
2017,04,10,00,33,8.70
2017,04,10,00,34,8.70
2017,04,10,00,35,8.70
2017,04,10,00,36,8.60
2017,04,10,00,37,8.60
2017,04,10,00,38,8.60
2017,04,10,00,39,8.60
2017,04,10,00,40,8.60
2017,04,10,00,41,8.70
2017,04,10,00,42,8.70
2017,04,10,00,43,8.70
2017,04,10,00,44,8.70
2017,04,10,00,45,8.70
2017,04,10,00,46,8.70
2017,04,10,00,47,8.70
2017,04,10,00,48,8.70
2017,04,10,00,49,8.70
2017,04,10,00,50,8.70
2017,04,10,00,51,8.70
2017,04,10,00,52,8.70
2017,04,10,00,53,8.70
2017,04,10,00,54,8.70
2017,04,10,00,55,8.70
2017,04,10,00,56,8.70
2017,04,10,00,57,8.70
2017,04,10,00,58,8.70
2017,04,10,00,59,8.70
2017,04,10,01,00,8.70
2017,04,10,01,01,8.70
2017,04,10,01,02,8.70
2017,04,10,01,03,8.70
2017,04,10,01,04,8.70
2017,04,10,01,05,8.70
2017,04,10,01,06,8.80
2017,04,10,01,07,8.80
2017,04,10,01,08,8.80
2017,04,10,01,09,8.80
2017,04,10,01,10,8.90
2017,04,10,01,11,8.90
2017,04,10,01,12,8.90
2017,04,10,01,13,8.90
2017,04,10,01,14,8.90
2017,04,10,01,15,8.90
2017,04,10,01,16,8.90
2017,04,10,01,17,8.90
2017,04,10,01,18,8.90
2017,04,10,01,19,8.90
2017,04,10,01,20,8.90
2017,04,10,01,21,8.90
2017,04,10,01,22,9.00
2017,04,10,01,23,9.00
2017,04,10,01,24,9.00
2017,04,10,01,25,9.00
2017,04,10,01,26,9.00
2017,04,10,01,27,9.00
2017,04,10,01,28,9.00
2017,04,10,01,29,9.00
2017,04,10,01,30,9.00
2017,04,10,01,31,9.00
2017,04,10,01,32,9.00
2017,04,10,01,33,9.00
2017,04,10,01,34,9.00
2017,04,10,01,35,8.90
2017,04,10,01,36,8.90
2017,04,10,01,37,8.90
2017,04,10,01,38,8.90
2017,04,10,01,39,8.90
2017,04,10,01,40,8.90
2017,04,10,01,41,8.90
2017,04,10,01,42,8.90
2017,04,10,01,43,8.90
2017,04,10,01,44,8.80
2017,04,10,01,45,8.80
2017,04,10,01,46,8.80
2017,04,10,01,47,8.80
2017,04,10,01,48,8.80
2017,04,10,01,49,8.80
2017,04,10,01,50,8.80
2017,04,10,01,51,8.80
2017,04,10,01,52,8.80
2017,04,10,01,53,8.80
2017,04,10,01,54,8.80
2017,04,10,01,55,8.80
2017,04,10,01,56,8.80
2017,04,10,01,57,8.80
2017,04,10,01,58,8.80
2017,04,10,01,59,8.80
2017,04,10,02,00,8.80
2017,04,10,02,01,8.80
2017,04,10,02,02,8.70
2017,04,10,02,03,8.70
2017,04,10,02,04,8.70
2017,04,10,02,05,8.70
2017,04,10,02,06,8.70
2017,04,10,02,07,8.70
2017,04,10,02,08,8.70
2017,04,10,02,09,8.70
2017,04,10,02,10,8.70
2017,04,10,02,11,8.70
2017,04,10,02,12,8.70
2017,04,10,02,13,8.60
2017,04,10,02,14,8.60
2017,04,10,02,15,8.60
2017,04,10,02,16,8.60
2017,04,10,02,17,8.50
2017,04,10,02,18,8.50
2017,04,10,02,19,8.50
2017,04,10,02,20,8.50
2017,04,10,02,21,8.50
2017,04,10,02,22,8.40
2017,04,10,02,23,8.40
2017,04,10,02,24,8.40
2017,04,10,02,25,8.40
2017,04,10,02,26,8.40
2017,04,10,02,27,8.30
2017,04,10,02,28,8.30
2017,04,10,02,29,8.30
2017,04,10,02,30,8.30
2017,04,10,02,31,8.30
2017,04,10,02,32,8.30
2017,04,10,02,33,8.20
2017,04,10,02,34,8.20
2017,04,10,02,35,8.20
2017,04,10,02,36,8.20
2017,04,10,02,37,8.20
2017,04,10,02,38,8.20
2017,04,10,02,39,8.20
2017,04,10,02,40,8.20
2017,04,10,02,41,8.20
2017,04,10,02,42,8.20
2017,04,10,02,43,8.20
2017,04,10,02,44,8.20
2017,04,10,02,45,8.20
2017,04,10,02,46,8.20
2017,04,10,02,47,8.20
2017,04,10,02,48,8.10
2017,04,10,02,49,8.10
2017,04,10,02,50,8.10
2017,04,10,02,51,8.10
2017,04,10,02,52,8.00
2017,04,10,02,53,8.00
2017,04,10,02,54,8.00
2017,04,10,02,55,8.00
2017,04,10,02,56,7.90
2017,04,10,02,57,7.90
2017,04,10,02,58,7.90
2017,04,10,02,59,7.90
2017,04,10,03,00,7.90
2017,04,10,03,01,7.80
2017,04,10,03,02,7.80
2017,04,10,03,03,7.80
2017,04,10,03,04,7.80
2017,04,10,03,05,7.80
2017,04,10,03,06,7.80
2017,04,10,03,07,7.80
2017,04,10,03,08,7.80
2017,04,10,03,09,7.80
2017,04,10,03,10,7.80
2017,04,10,03,11,7.80
2017,04,10,03,12,7.80
2017,04,10,03,13,7.80
2017,04,10,03,14,7.80
2017,04,10,03,15,7.80
2017,04,10,03,16,7.80
2017,04,10,03,17,7.80
2017,04,10,03,18,7.80
2017,04,10,03,19,7.70
2017,04,10,03,20,7.70
2017,04,10,03,21,7.70
2017,04,10,03,22,7.70
2017,04,10,03,23,7.70
2017,04,10,03,24,7.60
2017,04,10,03,25,7.60
2017,04,10,03,26,7.60
2017,04,10,03,27,7.60
2017,04,10,03,28,7.60
2017,04,10,03,29,7.60
2017,04,10,03,30,7.60
2017,04,10,03,31,7.60
2017,04,10,03,32,7.50
2017,04,10,03,33,7.50
2017,04,10,03,34,7.50
2017,04,10,03,35,7.50
2017,04,10,03,36,7.50
2017,04,10,03,37,7.50
2017,04,10,03,38,7.50
2017,04,10,03,39,7.40
2017,04,10,03,40,7.40
2017,04,10,03,41,7.40
2017,04,10,03,42,7.40
2017,04,10,03,43,7.40
2017,04,10,03,44,7.30
2017,04,10,03,45,7.30
2017,04,10,03,46,7.30
2017,04,10,03,47,7.30
2017,04,10,03,48,7.30
2017,04,10,03,49,7.30
2017,04,10,03,50,7.30
2017,04,10,03,51,7.30
2017,04,10,03,52,7.30
2017,04,10,03,53,7.30
2017,04,10,03,54,7.30
2017,04,10,03,55,7.30
2017,04,10,03,56,7.30
2017,04,10,03,57,7.30
2017,04,10,03,58,7.30
2017,04,10,03,59,7.30
2017,04,10,04,00,7.30
2017,04,10,04,01,7.30
2017,04,10,04,02,7.30
2017,04,10,04,03,7.30
2017,04,10,04,04,7.30
2017,04,10,04,05,7.30
2017,04,10,04,06,7.30
2017,04,10,04,07,7.30
2017,04,10,04,08,7.30
2017,04,10,04,09,7.30
2017,04,10,04,10,7.30
2017,04,10,04,11,7.30
2017,04,10,04,12,7.20
2017,04,10,04,13,7.20
2017,04,10,04,14,7.20
2017,04,10,04,15,7.20
2017,04,10,04,16,7.20
2017,04,10,04,17,7.20
2017,04,10,04,18,7.20
2017,04,10,04,19,7.20
2017,04,10,04,20,7.20
2017,04,10,04,21,7.20
2017,04,10,04,22,7.20
2017,04,10,04,23,7.20
2017,04,10,04,24,7.20
2017,04,10,04,25,7.20
2017,04,10,04,26,7.20
2017,04,10,04,27,7.20
2017,04,10,04,28,7.20
2017,04,10,04,29,7.20
2017,04,10,04,30,7.20
2017,04,10,04,31,7.20
2017,04,10,04,32,7.20
2017,04,10,04,33,7.20
2017,04,10,04,34,7.20
2017,04,10,04,35,7.10
2017,04,10,04,36,7.10
2017,04,10,04,37,7.10
2017,04,10,04,38,7.10
2017,04,10,04,39,7.10
2017,04,10,04,40,7.10
2017,04,10,04,41,7.10
2017,04,10,04,42,7.00
2017,04,10,04,43,7.00
2017,04,10,04,44,7.00
2017,04,10,04,45,7.00
2017,04,10,04,46,7.00
2017,04,10,04,47,7.00
2017,04,10,04,48,7.00
2017,04,10,04,49,7.00
2017,04,10,04,50,7.00
2017,04,10,04,51,7.00
2017,04,10,04,52,7.00
2017,04,10,04,53,7.00
2017,04,10,04,54,7.00
2017,04,10,04,55,7.00
2017,04,10,04,56,7.00
2017,04,10,04,57,7.00
2017,04,10,04,58,6.90
2017,04,10,04,59,6.90
2017,04,10,05,00,6.90
2017,04,10,05,01,6.90
2017,04,10,05,02,6.90
2017,04,10,05,03,6.90
2017,04,10,05,04,6.90
2017,04,10,05,05,6.90
2017,04,10,05,06,6.90
2017,04,10,05,07,7.00
2017,04,10,05,08,7.00
2017,04,10,05,09,7.00
2017,04,10,05,10,7.00
2017,04,10,05,11,7.00
2017,04,10,05,12,7.00
2017,04,10,05,13,7.00
2017,04,10,05,14,7.00
2017,04,10,05,15,7.00
2017,04,10,05,16,7.00
2017,04,10,05,17,7.00
2017,04,10,05,18,7.00
2017,04,10,05,19,7.00
2017,04,10,05,20,7.00
2017,04,10,05,21,6.90
2017,04,10,05,22,6.90
2017,04,10,05,23,6.90
2017,04,10,05,24,6.90
2017,04,10,05,25,6.90
2017,04,10,05,26,6.80
2017,04,10,05,27,6.80
2017,04,10,05,28,6.80
2017,04,10,05,29,6.80
2017,04,10,05,30,6.80
2017,04,10,05,31,6.80
2017,04,10,05,32,6.80
2017,04,10,05,33,6.80
2017,04,10,05,34,6.80
2017,04,10,05,35,6.80
2017,04,10,05,36,6.80
2017,04,10,05,37,6.80
2017,04,10,05,38,6.80
2017,04,10,05,39,6.80
2017,04,10,05,40,6.80
2017,04,10,05,41,6.80
2017,04,10,05,42,6.80
2017,04,10,05,43,6.80
2017,04,10,05,44,6.80
2017,04,10,05,45,6.80
2017,04,10,05,46,6.80
2017,04,10,05,47,6.80
2017,04,10,05,48,6.80
2017,04,10,05,49,6.80
2017,04,10,05,50,6.80
2017,04,10,05,51,6.80
2017,04,10,05,52,6.80
2017,04,10,05,53,6.80
2017,04,10,05,54,6.80
2017,04,10,05,55,6.80
2017,04,10,05,56,6.80
2017,04,10,05,57,6.80
2017,04,10,05,58,6.80
2017,04,10,05,59,6.80
2017,04,10,06,00,6.80
2017,04,10,06,01,6.80
2017,04,10,06,02,6.90
2017,04,10,06,03,6.90
2017,04,10,06,04,6.90
2017,04,10,06,05,6.90
2017,04,10,06,06,6.90
2017,04,10,06,07,6.90
2017,04,10,06,08,6.90
2017,04,10,06,09,6.90
2017,04,10,06,10,6.90
2017,04,10,06,11,6.90
2017,04,10,06,12,6.90
2017,04,10,06,13,6.90
2017,04,10,06,14,6.80
2017,04,10,06,15,6.80
2017,04,10,06,16,6.80
2017,04,10,06,17,6.80
2017,04,10,06,18,6.80
2017,04,10,06,19,6.80
2017,04,10,06,20,6.80
2017,04,10,06,21,6.80
2017,04,10,06,22,6.80
2017,04,10,06,23,6.80
2017,04,10,06,24,6.70
2017,04,10,06,25,6.70
2017,04,10,06,26,6.80
2017,04,10,06,27,6.80
2017,04,10,06,28,6.90
2017,04,10,06,29,6.90
2017,04,10,06,30,7.00
2017,04,10,06,31,7.00
2017,04,10,06,32,7.00
2017,04,10,06,33,7.00
2017,04,10,06,34,7.00
2017,04,10,06,35,7.00
2017,04,10,06,36,7.00
2017,04,10,06,37,7.00
2017,04,10,06,38,6.90
2017,04,10,06,39,6.90
2017,04,10,06,40,6.90
2017,04,10,06,41,6.80
2017,04,10,06,42,6.80
2017,04,10,06,43,6.80
2017,04,10,06,44,6.80
2017,04,10,06,45,6.70
2017,04,10,06,46,6.70
2017,04,10,06,47,6.70
2017,04,10,06,48,6.80
2017,04,10,06,49,6.80
2017,04,10,06,50,6.80
2017,04,10,06,51,6.80
2017,04,10,06,52,6.80
2017,04,10,06,53,6.80
2017,04,10,06,54,6.70
2017,04,10,06,55,6.70
2017,04,10,06,56,6.70
2017,04,10,06,57,6.60
2017,04,10,06,58,6.60
2017,04,10,06,59,6.60
2017,04,10,07,00,6.60
2017,04,10,07,01,6.50
2017,04,10,07,02,6.40
2017,04,10,07,03,6.40
2017,04,10,07,04,6.40
2017,04,10,07,05,6.40
2017,04,10,07,06,6.40
2017,04,10,07,07,6.30
2017,04,10,07,08,6.30
2017,04,10,07,09,6.30
2017,04,10,07,10,6.20
2017,04,10,07,11,6.20
2017,04,10,07,12,6.20
2017,04,10,07,13,6.20
2017,04,10,07,14,6.10
2017,04,10,07,15,6.10
2017,04,10,07,16,6.10
2017,04,10,07,17,6.10
2017,04,10,07,18,6.10
2017,04,10,07,19,6.00
2017,04,10,07,20,6.00
2017,04,10,07,21,6.00
2017,04,10,07,22,6.00
2017,04,10,07,23,6.00
2017,04,10,07,24,6.00
2017,04,10,07,25,6.00
2017,04,10,07,26,6.00
2017,04,10,07,27,5.90
2017,04,10,07,28,5.90
2017,04,10,07,29,5.90
2017,04,10,07,30,5.90
2017,04,10,07,31,5.80
2017,04,10,07,32,5.80
2017,04,10,07,33,5.90
2017,04,10,07,34,5.90
2017,04,10,07,35,6.00
2017,04,10,07,36,6.00
2017,04,10,07,37,6.00
2017,04,10,07,38,6.10
2017,04,10,07,39,6.10
2017,04,10,07,40,6.10
2017,04,10,07,41,6.10
2017,04,10,07,42,6.20
2017,04,10,07,43,6.20
2017,04,10,07,44,6.20
2017,04,10,07,45,6.20
2017,04,10,07,46,6.30
2017,04,10,07,47,6.30
2017,04,10,07,48,6.30
2017,04,10,07,49,6.40
2017,04,10,07,50,6.40
2017,04,10,07,51,6.40
2017,04,10,07,52,6.50
2017,04,10,07,53,6.60
2017,04,10,07,54,6.70
2017,04,10,07,55,6.80
2017,04,10,07,56,6.80
2017,04,10,07,57,6.90
2017,04,10,07,58,6.90
2017,04,10,07,59,7.00
2017,04,10,08,00,7.00
2017,04,10,08,01,7.10
2017,04,10,08,02,7.10
2017,04,10,08,03,7.20
2017,04,10,08,04,7.20
2017,04,10,08,05,7.20
2017,04,10,08,06,7.30
2017,04,10,08,07,7.30
2017,04,10,08,08,7.30
2017,04,10,08,09,7.30
2017,04,10,08,10,7.30
2017,04,10,08,11,7.30
2017,04,10,08,12,7.40
2017,04,10,08,13,7.40
2017,04,10,08,14,7.40
2017,04,10,08,15,7.40
2017,04,10,08,16,7.50
2017,04,10,08,17,7.50
2017,04,10,08,18,7.50
2017,04,10,08,19,7.50
2017,04,10,08,20,7.60
2017,04,10,08,21,7.60
2017,04,10,08,22,7.60
2017,04,10,08,23,7.70
2017,04,10,08,24,7.80
2017,04,10,08,25,7.80
2017,04,10,08,26,7.90
2017,04,10,08,27,8.00
2017,04,10,08,28,8.20
2017,04,10,08,29,8.30
2017,04,10,08,30,8.40
2017,04,10,08,31,8.50
2017,04,10,08,32,8.60
2017,04,10,08,33,8.70
2017,04,10,08,34,8.70
2017,04,10,08,35,8.90
2017,04,10,08,36,8.90
2017,04,10,08,37,8.90
2017,04,10,08,38,8.90
2017,04,10,08,39,8.90
2017,04,10,08,40,8.90
2017,04,10,08,41,9.00
2017,04,10,08,42,9.00
2017,04,10,08,43,9.10
2017,04,10,08,44,9.10
2017,04,10,08,45,9.10
2017,04,10,08,46,9.10
2017,04,10,08,47,9.10
2017,04,10,08,48,9.20
2017,04,10,08,49,9.30
2017,04,10,08,50,9.40
2017,04,10,08,51,9.40
2017,04,10,08,52,9.50
2017,04,10,08,53,9.50
2017,04,10,08,54,9.60
2017,04,10,08,55,9.70
2017,04,10,08,56,9.60
2017,04,10,08,57,9.60
2017,04,10,08,58,9.50
2017,04,10,08,59,9.60
2017,04,10,09,00,9.60
2017,04,10,09,01,9.60
2017,04,10,09,02,9.50
2017,04,10,09,03,9.50
2017,04,10,09,04,9.50
2017,04,10,09,05,9.50
2017,04,10,09,06,9.50
2017,04,10,09,07,9.50
2017,04,10,09,08,9.50
2017,04,10,09,09,9.60
2017,04,10,09,10,9.60
2017,04,10,09,11,9.70
2017,04,10,09,12,9.60
2017,04,10,09,13,9.60
2017,04,10,09,14,9.60
2017,04,10,09,15,9.60
2017,04,10,09,16,9.60
2017,04,10,09,17,9.50
2017,04,10,09,18,9.40
2017,04,10,09,19,9.40
2017,04,10,09,20,9.40
2017,04,10,09,21,9.30
2017,04,10,09,22,9.30
2017,04,10,09,23,9.20
2017,04,10,09,24,9.20
2017,04,10,09,25,9.20
2017,04,10,09,26,9.20
2017,04,10,09,27,9.20
2017,04,10,09,28,9.20
2017,04,10,09,29,9.20
2017,04,10,09,30,9.20
2017,04,10,09,31,9.20
2017,04,10,09,32,9.20
2017,04,10,09,33,9.20
2017,04,10,09,34,9.20
2017,04,10,09,35,9.30
2017,04,10,09,36,9.30
2017,04,10,09,37,9.40
2017,04,10,09,38,9.40
2017,04,10,09,39,9.50
2017,04,10,09,40,9.50
2017,04,10,09,41,9.50
2017,04,10,09,42,9.50
2017,04,10,09,43,9.50
2017,04,10,09,44,9.60
2017,04,10,09,45,9.50
2017,04,10,09,46,9.50
2017,04,10,09,47,9.50
2017,04,10,09,48,9.50
2017,04,10,09,49,9.50
2017,04,10,09,50,9.50
2017,04,10,09,51,9.50
2017,04,10,09,52,9.40
2017,04,10,09,53,9.40
2017,04,10,09,54,9.50
2017,04,10,09,55,9.50
2017,04,10,09,56,9.50
2017,04,10,09,57,9.50
2017,04,10,09,58,9.50
2017,04,10,09,59,9.50
2017,04,10,10,00,9.50
2017,04,10,10,01,9.60
2017,04,10,10,02,9.60
2017,04,10,10,03,9.60
2017,04,10,10,04,9.70
2017,04,10,10,05,9.70
2017,04,10,10,06,9.70
2017,04,10,10,07,9.70
2017,04,10,10,08,9.70
2017,04,10,10,09,9.80
2017,04,10,10,10,9.80
2017,04,10,10,11,9.80
2017,04,10,10,12,9.80
2017,04,10,10,13,9.80
2017,04,10,10,14,9.80
2017,04,10,10,15,9.90
2017,04,10,10,16,9.90
2017,04,10,10,17,9.90
2017,04,10,10,18,9.90
2017,04,10,10,19,9.90
2017,04,10,10,20,9.90
2017,04,10,10,21,9.90
2017,04,10,10,22,9.90
2017,04,10,10,23,9.90
2017,04,10,10,24,9.90
2017,04,10,10,25,9.90
2017,04,10,10,26,9.90
2017,04,10,10,27,9.80
2017,04,10,10,28,9.80
2017,04,10,10,29,9.70
2017,04,10,10,30,9.70
2017,04,10,10,31,9.70
2017,04,10,10,32,9.70
2017,04,10,10,33,9.70
2017,04,10,10,34,9.60
2017,04,10,10,35,9.60
2017,04,10,10,36,9.60
2017,04,10,10,37,9.60
2017,04,10,10,38,9.60
2017,04,10,10,39,9.50
2017,04,10,10,40,9.50
2017,04,10,10,41,9.50
2017,04,10,10,42,9.40
2017,04,10,10,43,9.40
2017,04,10,10,44,9.50
2017,04,10,10,45,9.50
2017,04,10,10,46,9.50
2017,04,10,10,47,9.50
2017,04,10,10,48,9.60
2017,04,10,10,49,9.60
2017,04,10,10,50,9.60
2017,04,10,10,51,9.60
2017,04,10,10,52,9.70
2017,04,10,10,53,9.60
2017,04,10,10,54,9.60
2017,04,10,10,55,9.60
2017,04,10,10,56,9.50
2017,04,10,10,57,9.50
2017,04,10,10,58,9.50
2017,04,10,10,59,9.40
2017,04,10,11,00,9.40
2017,04,10,11,01,9.40
2017,04,10,11,02,9.30
2017,04,10,11,03,9.20
2017,04,10,11,04,9.20
2017,04,10,11,05,9.20
2017,04,10,11,06,9.10
2017,04,10,11,07,9.00
2017,04,10,11,08,9.00
2017,04,10,11,09,9.00
2017,04,10,11,10,8.90
2017,04,10,11,11,8.90
2017,04,10,11,12,8.90
2017,04,10,11,13,9.00
2017,04,10,11,14,8.90
2017,04,10,11,15,8.90
2017,04,10,11,16,8.90
2017,04,10,11,17,8.90
2017,04,10,11,18,8.90
2017,04,10,11,19,8.90
2017,04,10,11,20,8.90
2017,04,10,11,21,8.80
2017,04,10,11,22,8.90
2017,04,10,11,23,8.80
2017,04,10,11,24,8.80
2017,04,10,11,25,8.80
2017,04,10,11,26,8.80
2017,04,10,11,27,8.80
2017,04,10,11,28,8.90
2017,04,10,11,29,8.90
2017,04,10,11,30,8.90
2017,04,10,11,31,8.90
2017,04,10,11,32,8.90
2017,04,10,11,33,8.90
2017,04,10,11,34,8.80
2017,04,10,11,35,8.80
2017,04,10,11,36,8.80
2017,04,10,11,37,8.70
2017,04,10,11,38,8.70
2017,04,10,11,39,8.70
2017,04,10,11,40,8.70
2017,04,10,11,41,8.70
2017,04,10,11,42,8.70
2017,04,10,11,43,8.70
2017,04,10,11,44,8.70
2017,04,10,11,45,8.70
2017,04,10,11,46,8.70
2017,04,10,11,47,8.70
2017,04,10,11,48,8.70
2017,04,10,11,49,8.70
2017,04,10,11,50,8.70
2017,04,10,11,51,8.70
2017,04,10,11,52,8.70
2017,04,10,11,53,8.70
2017,04,10,11,54,8.70
2017,04,10,11,55,8.80
2017,04,10,11,56,8.90
2017,04,10,11,57,9.00
2017,04,10,11,58,9.00
2017,04,10,11,59,9.10
2017,04,10,12,00,9.20
2017,04,10,12,01,9.40
2017,04,10,12,02,9.40
2017,04,10,12,03,9.50
2017,04,10,12,04,9.60
2017,04,10,12,05,9.60
2017,04,10,12,06,9.50
2017,04,10,12,07,9.50
2017,04,10,12,08,9.50
2017,04,10,12,09,9.50
2017,04,10,12,10,9.60
2017,04,10,12,11,9.70
2017,04,10,12,12,9.70
2017,04,10,12,13,9.60
2017,04,10,12,14,9.60
2017,04,10,12,15,9.60
2017,04,10,12,16,9.70
2017,04,10,12,17,9.70
2017,04,10,12,18,9.70
2017,04,10,12,19,9.70
2017,04,10,12,20,9.70
2017,04,10,12,21,9.70
2017,04,10,12,22,9.60
2017,04,10,12,23,9.60
2017,04,10,12,24,9.50
2017,04,10,12,25,9.50
2017,04,10,12,26,9.50
2017,04,10,12,27,9.50
2017,04,10,12,28,9.40
2017,04,10,12,29,9.40
2017,04,10,12,30,9.50
2017,04,10,12,31,9.50
2017,04,10,12,32,9.60
2017,04,10,12,33,9.60
2017,04,10,12,34,9.70
2017,04,10,12,35,9.70
2017,04,10,12,36,9.70
2017,04,10,12,37,9.70
2017,04,10,12,38,9.70
2017,04,10,12,39,9.70
2017,04,10,12,40,9.70
2017,04,10,12,41,9.80
2017,04,10,12,42,9.90
2017,04,10,12,43,9.90
2017,04,10,12,44,9.90
2017,04,10,12,45,10.00
2017,04,10,12,46,10.10
2017,04,10,12,47,10.10
2017,04,10,12,48,10.10
2017,04,10,12,49,10.10
2017,04,10,12,50,10.10
2017,04,10,12,51,10.20
2017,04,10,12,52,10.20
2017,04,10,12,53,10.30
2017,04,10,12,54,10.30
2017,04,10,12,55,10.40
2017,04,10,12,56,10.40
2017,04,10,12,57,10.50
2017,04,10,12,58,10.60
2017,04,10,12,59,10.60
2017,04,10,13,00,10.70
2017,04,10,13,01,10.70
2017,04,10,13,02,10.80
2017,04,10,13,03,10.80
2017,04,10,13,04,10.90
2017,04,10,13,05,10.90
2017,04,10,13,06,10.90
2017,04,10,13,07,10.90
2017,04,10,13,08,10.80
2017,04,10,13,09,10.80
2017,04,10,13,10,10.80
2017,04,10,13,11,10.80
2017,04,10,13,12,10.70
2017,04,10,13,13,10.70
2017,04,10,13,14,10.60
2017,04,10,13,15,10.60
2017,04,10,13,16,10.40
2017,04,10,13,17,10.40
2017,04,10,13,18,10.40
2017,04,10,13,19,10.50
2017,04,10,13,20,10.60
2017,04,10,13,21,10.60
2017,04,10,13,22,10.70
2017,04,10,13,23,10.80
2017,04,10,13,24,10.80
2017,04,10,13,25,10.80
2017,04,10,13,26,10.60
2017,04,10,13,27,10.50
2017,04,10,13,28,10.40
2017,04,10,13,29,10.40
2017,04,10,13,30,10.30
2017,04,10,13,31,10.30
2017,04,10,13,32,10.30
2017,04,10,13,33,10.20
2017,04,10,13,34,10.20
2017,04,10,13,35,10.10
2017,04,10,13,36,10.10
2017,04,10,13,37,10.20
2017,04,10,13,38,10.30
2017,04,10,13,39,10.30
2017,04,10,13,40,10.40
2017,04,10,13,41,10.40
2017,04,10,13,42,10.30
2017,04,10,13,43,10.30
2017,04,10,13,44,10.20
2017,04,10,13,45,10.10
2017,04,10,13,46,10.20
2017,04,10,13,47,10.20
2017,04,10,13,48,10.30
2017,04,10,13,49,10.30
2017,04,10,13,50,10.20
2017,04,10,13,51,10.10
2017,04,10,13,52,10.00
2017,04,10,13,53,9.90
2017,04,10,13,54,9.90
2017,04,10,13,55,9.90
2017,04,10,13,56,10.00
2017,04,10,13,57,10.10
2017,04,10,13,58,10.10
2017,04,10,13,59,10.10
2017,04,10,14,00,10.20
2017,04,10,14,01,10.20
2017,04,10,14,02,10.10
2017,04,10,14,03,9.90
2017,04,10,14,04,9.90
2017,04,10,14,05,9.80
2017,04,10,14,06,9.70
2017,04,10,14,07,9.70
2017,04,10,14,08,9.70
2017,04,10,14,09,9.70
2017,04,10,14,10,9.70
2017,04,10,14,11,9.60
2017,04,10,14,12,9.60
2017,04,10,14,13,9.60
2017,04,10,14,14,9.60
2017,04,10,14,15,9.70
2017,04,10,14,16,9.70
2017,04,10,14,17,9.70
2017,04,10,14,18,9.70
2017,04,10,14,19,9.80
2017,04,10,14,20,9.80
2017,04,10,14,21,9.80
2017,04,10,14,22,9.90
2017,04,10,14,23,9.90
2017,04,10,14,24,9.90
2017,04,10,14,25,10.10
2017,04,10,14,26,10.00
2017,04,10,14,27,9.90
2017,04,10,14,28,10.00
2017,04,10,14,29,10.10
2017,04,10,14,30,10.10
2017,04,10,14,31,10.10
2017,04,10,14,32,10.10
2017,04,10,14,33,10.10
2017,04,10,14,34,10.10
2017,04,10,14,35,10.20
2017,04,10,14,36,10.20
2017,04,10,14,37,10.20
2017,04,10,14,38,10.20
2017,04,10,14,39,10.20
2017,04,10,14,40,10.20
2017,04,10,14,41,10.20
2017,04,10,14,42,10.20
2017,04,10,14,43,10.20
2017,04,10,14,44,10.20
2017,04,10,14,45,10.30
2017,04,10,14,46,10.40
2017,04,10,14,47,10.60
2017,04,10,14,48,10.70
2017,04,10,14,49,10.80
2017,04,10,14,50,10.80
2017,04,10,14,51,10.80
2017,04,10,14,52,10.90
2017,04,10,14,53,10.90
2017,04,10,14,54,10.90
2017,04,10,14,55,11.00
2017,04,10,14,56,11.10
2017,04,10,14,57,11.20
2017,04,10,14,58,11.30
2017,04,10,14,59,11.30
2017,04,10,15,00,11.30
2017,04,10,15,01,11.20
2017,04,10,15,02,11.20
2017,04,10,15,03,11.20
2017,04,10,15,04,11.20
2017,04,10,15,05,11.20
2017,04,10,15,06,11.20
2017,04,10,15,07,11.10
2017,04,10,15,08,11.20
2017,04,10,15,09,11.20
2017,04,10,15,10,11.20
2017,04,10,15,11,11.20
2017,04,10,15,12,11.20
2017,04,10,15,13,11.20
2017,04,10,15,14,11.20
2017,04,10,15,15,11.10
2017,04,10,15,16,11.10
2017,04,10,15,17,11.10
2017,04,10,15,18,11.00
2017,04,10,15,19,10.90
2017,04,10,15,20,10.70
2017,04,10,15,21,10.60
2017,04,10,15,22,10.60
2017,04,10,15,23,10.60
2017,04,10,15,24,10.60
2017,04,10,15,25,10.50
2017,04,10,15,26,10.40
2017,04,10,15,27,10.30
2017,04,10,15,28,10.30
2017,04,10,15,29,10.20
2017,04,10,15,30,10.20
2017,04,10,15,31,10.30
2017,04,10,15,32,10.30
2017,04,10,15,33,10.30
2017,04,10,15,34,10.20
2017,04,10,15,35,10.20
2017,04,10,15,36,10.20
2017,04,10,15,37,10.40
2017,04,10,15,38,10.50
2017,04,10,15,39,10.60
2017,04,10,15,40,10.70
2017,04,10,15,41,10.90
2017,04,10,15,42,11.00
2017,04,10,15,43,11.10
2017,04,10,15,44,11.00
2017,04,10,15,45,11.00
2017,04,10,15,46,11.10
2017,04,10,15,47,11.10
2017,04,10,15,48,11.10
2017,04,10,15,49,11.10
2017,04,10,15,50,11.10
2017,04,10,15,51,11.10
2017,04,10,15,52,11.00
2017,04,10,15,53,10.90
2017,04,10,15,54,10.90
2017,04,10,15,55,10.90
2017,04,10,15,56,10.90
2017,04,10,15,57,10.80
2017,04,10,15,58,10.70
2017,04,10,15,59,10.70
2017,04,10,16,00,10.70
2017,04,10,16,01,10.80
2017,04,10,16,02,10.80
2017,04,10,16,03,10.80
2017,04,10,16,04,10.80
2017,04,10,16,05,10.80
2017,04,10,16,06,10.80
2017,04,10,16,07,10.90
2017,04,10,16,08,10.90
2017,04,10,16,09,10.90
2017,04,10,16,10,10.90
2017,04,10,16,11,10.90
2017,04,10,16,12,10.90
2017,04,10,16,13,10.90
2017,04,10,16,14,10.90
2017,04,10,16,15,10.90
2017,04,10,16,16,10.90
2017,04,10,16,17,10.90
2017,04,10,16,18,10.80
2017,04,10,16,19,10.80
2017,04,10,16,20,10.90
2017,04,10,16,21,10.90
2017,04,10,16,22,10.90
2017,04,10,16,23,10.90
2017,04,10,16,24,10.80
2017,04,10,16,25,10.70
2017,04,10,16,26,10.60
2017,04,10,16,27,10.60
2017,04,10,16,28,10.50
2017,04,10,16,29,10.40
2017,04,10,16,30,10.40
2017,04,10,16,31,10.40
2017,04,10,16,32,10.60
2017,04,10,16,33,10.60
2017,04,10,16,34,10.60
2017,04,10,16,35,10.60
2017,04,10,16,36,10.60
2017,04,10,16,37,10.60
2017,04,10,16,38,10.70
2017,04,10,16,39,10.70
2017,04,10,16,40,10.70
2017,04,10,16,41,10.70
2017,04,10,16,42,10.70
2017,04,10,16,43,10.60
2017,04,10,16,44,10.40
2017,04,10,16,45,10.40
2017,04,10,16,46,10.40
2017,04,10,16,47,10.30
2017,04,10,16,48,10.40
2017,04,10,16,49,10.30
2017,04,10,16,50,10.30
2017,04,10,16,51,10.20
2017,04,10,16,52,10.20
2017,04,10,16,53,10.30
2017,04,10,16,54,10.40
2017,04,10,16,55,10.40
2017,04,10,16,56,10.40
2017,04,10,16,57,10.50
2017,04,10,16,58,10.60
2017,04,10,16,59,10.70
2017,04,10,17,00,10.70
2017,04,10,17,01,10.80
2017,04,10,17,02,10.90
2017,04,10,17,03,11.00
2017,04,10,17,04,11.10
2017,04,10,17,05,11.10
2017,04,10,17,06,11.00
2017,04,10,17,07,10.90
2017,04,10,17,08,10.80
2017,04,10,17,09,10.70
2017,04,10,17,10,10.70
2017,04,10,17,11,10.60
2017,04,10,17,12,10.60
2017,04,10,17,13,10.60
2017,04,10,17,14,10.50
2017,04,10,17,15,10.40
2017,04,10,17,16,10.40
2017,04,10,17,17,10.40
2017,04,10,17,18,10.40
2017,04,10,17,19,10.40
2017,04,10,17,20,10.40
2017,04,10,17,21,10.40
2017,04,10,17,22,10.40
2017,04,10,17,23,10.40
2017,04,10,17,24,10.40
2017,04,10,17,25,10.40
2017,04,10,17,26,10.40
2017,04,10,17,27,10.40
2017,04,10,17,28,10.40
2017,04,10,17,29,10.40
2017,04,10,17,30,10.40
2017,04,10,17,31,10.40
2017,04,10,17,32,10.40
2017,04,10,17,33,10.40
2017,04,10,17,34,10.40
2017,04,10,17,35,10.40
2017,04,10,17,36,10.40
2017,04,10,17,37,10.40
2017,04,10,17,38,10.40
2017,04,10,17,39,10.40
2017,04,10,17,40,10.50
2017,04,10,17,41,10.50
2017,04,10,17,42,10.40
2017,04,10,17,43,10.40
2017,04,10,17,44,10.40
2017,04,10,17,45,10.40
2017,04,10,17,46,10.30
2017,04,10,17,47,10.20
2017,04,10,17,48,10.10
2017,04,10,17,49,10.00
2017,04,10,17,50,9.90
2017,04,10,17,51,9.90
2017,04,10,17,52,9.90
2017,04,10,17,53,9.80
2017,04,10,17,54,9.70